| time (UTC) | temp F | wind direction | speed MPH | gust MPH | rain 1hr in | rain 24hr in | rain mn in | humidity % | barometer mb |
| 20260505170138 | 72 | 80 | 1.0 | 3.0 | 0.00 | 0.00 | 0.00 | 77 | 1003.2 |
| 20260505164522 | 72 | 86 | 1.0 | 7.0 | 0.00 | 0.00 | 0.00 | 77 | 1003.1 |
| 20260505163056 | 72 | 333 | 1.0 | 4.0 | 0.00 | 0.00 | 0.00 | 78 | 1003.2 |
| 20260505161543 | 71 | 199 | 1.0 | 6.0 | 0.00 | 0.00 | 0.00 | 78 | 1003.2 |
| 20260505160117 | 70 | 113 | 1.0 | 7.0 | 0.00 | 0.00 | 0.00 | 79 | 1003.1 |
| 20260505153024 | 69 | 131 | 1.0 | 11.0 | 0.00 | 0.00 | 0.00 | 81 | 1003.2 |
| 20260505151600 | 68 | 80 | 3.0 | 13.0 | 0.00 | 0.00 | 0.00 | 81 | 1003.3 |
| 20260505151502 | 68 | 113 | 4.0 | 13.0 | 0.00 | 0.00 | 0.00 | 80 | 1003.3 |
| 20260505140106 | 67 | 101 | 3.0 | 10.0 | 0.00 | 0.00 | 0.00 | 78 | 1003.5 |
| 20260505124544 | 67 | 116 | 1.0 | 6.0 | 0.00 | 0.00 | 0.00 | 76 | 1003.5 |
| 20260505123041 | 66 | 139 | 1.0 | 8.0 | 0.00 | 0.00 | 0.00 | 76 | 1003.3 |
| 20260505121502 | 66 | 161 | 0.0 | 7.0 | 0.00 | 0.00 | 0.00 | 76 | 1003.3 |
| 20260505120042 | 66 | 163 | 1.0 | 7.0 | 0.00 | 0.00 | 0.00 | 76 | 1002.9 |
| 20260505114615 | 66 | 145 | 1.0 | 6.0 | 0.00 | 0.00 | 0.00 | 76 | 1002.7 |
| 20260505114502 | 66 | 135 | 2.0 | 6.0 | 0.00 | 0.00 | 0.00 | 76 | 1002.7 |
| 20260505113043 | 66 | 114 | 2.0 | 6.0 | 0.00 | 0.00 | 0.00 | 76 | 1002.7 |
| 20260505111529 | 66 | 154 | 2.0 | 7.0 | 0.00 | 0.00 | 0.00 | 75 | 1002.6 |
| 20260505101545 | 66 | 158 | 1.0 | 7.0 | 0.00 | 0.00 | 0.00 | 75 | 1002.1 |
| 20260505100010 | 67 | 11 | 0.0 | 5.0 | 0.00 | 0.00 | 0.00 | 75 | 1002.0 |
| 20260505094548 | 67 | 124 | 0.0 | 5.0 | 0.00 | 0.00 | 0.00 | 74 | 1002.2 |
| 20260505093030 | 67 | 123 | 1.0 | 6.0 | 0.00 | 0.00 | 0.00 | 73 | 1002.3 |
| 20260505091510 | 67 | 139 | 0.0 | 4.0 | 0.00 | 0.00 | 0.00 | 74 | 1002.3 |
| 20260505090053 | 67 | 145 | 0.0 | 5.0 | 0.00 | 0.00 | 0.00 | 74 | 1002.2 |
| 20260505084515 | 66 | 121 | 1.0 | 3.0 | 0.00 | 0.00 | 0.00 | 75 | 1002.0 |
| 20260505083059 | 66 | 72 | 0.0 | 2.0 | 0.00 | 0.00 | 0.00 | 76 | 1001.8 |
| 20260505081540 | 65 | 190 | 0.0 | 2.0 | 0.00 | 0.00 | 0.00 | 76 | 1001.6 |
| 20260505080105 | 65 | 139 | 0.0 | 4.0 | 0.00 | 0.00 | 0.00 | 76 | 1001.8 |
| 20260505074523 | 65 | 151 | 0.0 | 3.0 | 0.00 | 0.00 | 0.00 | 76 | 1001.7 |
| 20260505073105 | 65 | 148 | 0.0 | 3.0 | 0.00 | 0.00 | 0.00 | 76 | 1001.9 |
| 20260505071538 | 66 | 111 | 0.0 | 2.0 | 0.00 | 0.00 | 0.00 | 75 | 1002.2 |
| 20260505070110 | 66 | 56 | 0.0 | 3.0 | 0.00 | 0.00 | 0.00 | 75 | 1002.3 |
| 20260505064551 | 66 | 125 | 0.0 | 1.0 | 0.00 | 0.00 | 0.00 | 75 | 1002.9 |
| 20260505063007 | 66 | 116 | 0.0 | 1.0 | 0.00 | 0.00 | 0.00 | 74 | 1003.3 |
| 20260505061549 | 66 | 96 | 0.0 | 1.0 | 0.00 | 0.00 | 0.00 | 74 | 1003.6 |
| 20260505060012 | 66 | 105 | 0.0 | 2.0 | 0.00 | 0.00 | 0.00 | 72 | 1003.6 |
| 20260505054558 | 66 | 116 | 0.0 | 2.0 | 0.00 | 0.00 | 0.00 | 73 | 1003.4 |
| 20260505053031 | 67 | 235 | 2.0 | 6.0 | 0.00 | 0.00 | 0.00 | 71 | 1003.6 |
| 20260505051505 | 67 | 203 | 0.0 | 2.0 | 0.00 | 0.00 | 0.00 | 71 | 1003.5 |
| 20260505041527 | 65 | 148 | 0.0 | 1.0 | 0.00 | 0.00 | 0.00 | 72 | 1004.2 |
| 20260505040055 | 66 | 148 | 0.0 | 1.0 | 0.00 | 0.00 | 0.00 | 70 | 1004.7 |
| 20260505034519 | 66 | 148 | 0.0 | 1.0 | 0.00 | 0.00 | 0.00 | 69 | 1005.0 |
| 20260505033057 | 67 | 148 | 0.0 | 2.0 | 0.00 | 0.00 | 0.00 | 69 | 1004.9 |
| 20260505031539 | 67 | 29 | 0.0 | 0.0 | 0.00 | 0.00 | 0.00 | 68 | 1005.2 |
| 20260505030115 | 67 | 30 | 0.0 | 0.0 | 0.00 | 0.00 | 0.00 | 68 | 1005.1 |
| 20260505024546 | 68 | 29 | 0.0 | 0.0 | 0.00 | 0.00 | 0.00 | 66 | 1005.0 |
| 20260505023021 | 69 | 29 | 0.0 | 0.0 | 0.00 | 0.00 | 0.00 | 64 | 1005.2 |
| 20260505021557 | 69 | 29 | 0.0 | 2.0 | 0.00 | 0.00 | 0.00 | 64 | 1004.9 |
| 20260505020037 | 69 | 336 | 0.0 | 1.0 | 0.00 | 0.00 | 0.00 | 63 | 1005.0 |
| 20260505014557 | 70 | 336 | 0.0 | 1.0 | 0.00 | 0.00 | 0.00 | 61 | 1004.6 |
| 20260505013041 | 71 | 326 | 0.0 | 2.0 | 0.00 | 0.00 | 0.00 | 60 | 1004.6 |
| 20260505011520 | 72 | 299 | 0.0 | 2.0 | 0.00 | 0.00 | 0.00 | 58 | 1004.4 |
| 20260505010059 | 73 | 356 | 0.0 | 4.0 | 0.00 | 0.00 | 0.00 | 57 | 1004.4 |
| 20260505004523 | 74 | 289 | 0.0 | 7.0 | 0.00 | 0.00 | 0.00 | 55 | 1004.1 |
| 20260505003057 | 75 | 39 | 1.0 | 5.0 | 0.00 | 0.00 | 0.00 | 54 | 1004.2 |
| 20260505001547 | 77 | 260 | 1.0 | 6.0 | 0.00 | 0.00 | 0.00 | 53 | 1004.1 |
| 20260505000005 | 78 | 293 | 1.0 | 5.0 | 0.00 | 0.00 | 0.00 | 51 | 1004.3 |
| 20260504234549 | 79 | 225 | 1.0 | 7.0 | 0.00 | 0.00 | 0.00 | 50 | 1004.2 |
| 20260504233023 | 79 | 297 | 0.0 | 15.0 | 0.00 | 0.00 | 0.00 | 52 | 1004.3 |
| 20260504231605 | 78 | 265 | 0.0 | 5.0 | 0.00 | 0.00 | 0.00 | 52 | 1004.3 |
| 20260504231503 | 78 | 249 | 0.0 | 5.0 | 0.00 | 0.00 | 0.00 | 52 | 1004.4 |
| 20260504230019 | 78 | 216 | 0.0 | 6.0 | 0.00 | 0.00 | 0.00 | 50 | 1004.4 |
| 20260504224555 | 79 | 293 | 0.0 | 7.0 | 0.00 | 0.00 | 0.00 | 50 | 1004.3 |
| 20260504223035 | 80 | 360 | 1.0 | 8.0 | 0.00 | 0.00 | 0.00 | 48 | 1004.2 |
| 20260504221510 | 82 | 334 | 2.0 | 7.0 | 0.00 | 0.00 | 0.00 | 46 | 1004.5 |
| 20260504220049 | 82 | 266 | 1.0 | 6.0 | 0.00 | 0.00 | 0.00 | 47 | 1004.6 |
| 20260504214509 | 83 | 187 | 1.0 | 8.0 | 0.00 | 0.00 | 0.00 | 45 | 1004.7 |
| 20260504213047 | 81 | 256 | 1.0 | 9.0 | 0.00 | 0.00 | 0.00 | 46 | 1004.8 |
| 20260504211530 | 81 | 342 | 2.0 | 7.0 | 0.00 | 0.00 | 0.00 | 46 | 1004.9 |
| 20260504210111 | 82 | 251 | 1.0 | 7.0 | 0.00 | 0.00 | 0.00 | 47 | 1005.4 |
| 20260504204527 | 82 | 241 | 1.0 | 7.0 | 0.00 | 0.00 | 0.00 | 47 | 1005.6 |
| 20260504203104 | 81 | 228 | 0.0 | 7.0 | 0.00 | 0.00 | 0.00 | 49 | 1005.9 |
| 20260504203007 | 81 | 324 | 0.0 | 7.0 | 0.00 | 0.00 | 0.00 | 46 | 1005.9 |
| 20260504201547 | 81 | 283 | 2.0 | 10.0 | 0.00 | 0.00 | 0.00 | 46 | 1006.2 |
| 20260504200115 | 81 | 194 | 2.0 | 9.0 | 0.00 | 0.00 | 0.00 | 44 | 1006.4 |
| 20260504194559 | 82 | 281 | 2.0 | 7.0 | 0.00 | 0.00 | 0.00 | 44 | 1006.7 |
| 20260504193019 | 81 | 268 | 3.0 | 8.0 | 0.00 | 0.00 | 0.00 | 43 | 1007.1 |
| 20260504191556 | 81 | 255 | 2.0 | 11.0 | 0.00 | 0.00 | 0.00 | 46 | 1007.3 |
| 20260504190021 | 81 | 222 | 3.0 | 10.0 | 0.00 | 0.00 | 0.00 | 45 | 1007.4 |
| 20260504184600 | 80 | 168 | 3.0 | 12.0 | 0.00 | 0.00 | 0.00 | 44 | 1007.6 |
| 20260504183037 | 80 | 272 | 2.0 | 13.0 | 0.00 | 0.00 | 0.00 | 45 | 1007.8 |
| 20260504181513 | 80 | 357 | 1.0 | 9.0 | 0.00 | 0.00 | 0.00 | 47 | 1008.1 |
| 20260504180142 | 79 | 275 | 3.0 | 9.0 | 0.00 | 0.00 | 0.00 | 47 | 1008.3 |
| 20260504174510 | 78 | 276 | 5.0 | 14.0 | 0.00 | 0.00 | 0.00 | 45 | 1008.5 |
| 20260504173059 | 78 | 322 | 5.0 | 11.0 | 0.00 | 0.00 | 0.00 | 45 | 1008.7 |
| 20260504171528 | 78 | 269 | 4.0 | 16.0 | 0.00 | 0.00 | 0.00 | 46 | 1008.7 |